Flag Weather past 2 weeks in Taiohae, Marquesas Islands, French Polynesia

Now
75 °F

Mild.


Feels Like: 74 °F
Forecast: 78 / 83 °F
Wind: 9 mph from Southeast

Location: Atuona

Current Time: Oct 30, 2014 at 5:59:15 AM

Latest Report: Oct 30, 2014 at 4:30 AM


Visibility: N/A

Pressure: 29.89 "Hg

Humidity: 96%

Dew point: 74 °F

Location of TaiohaeLocation

Historic Weather in Taiohae — Graph

°F

Taiohae temperature yesterday

Maximum temperature yesterday: 93 °F (at 11:30 AM)
Minimum temperature yesterday: 74 °F (at 5:30 AM)
Average temperature yesterday: 82 °F

Past Weeks' High & Low Weather Summary

 TemperatureHumidityPressure
High93 °F (Oct 29, 11:30 AM)96% (Oct 30, 4:30 AM)30.01 "Hg (Oct 30, 4:30 AM)
Low71 °F (Oct 25, 5:30 AM)44% (Oct 20, 12:30 PM)29.81 "Hg (Oct 26, 3:30 PM)
Average79 °F74%29.91 "Hg
* Reported Oct 15 4:30 AM — Oct 30 4:30 AM, Taiohae, Weather by CustomWeather, © 2014

Note: Actual official high and low records may vary slightly from our data, if they occured in-between our weather recording intervals... More about our weather records

Advertising

Taiohae weather history for previous 24 hours

 ConditionsComfort  
Time TempWeatherWind HumidityBarometerVisibility
4:30 AM
Oct 30
75 °FMild.9 mph96%29.89 "HgN/A
3:30 AM75 °FMild.6 mph94%29.87 "HgN/A
2:30 AM76 °FMild.1 mph92%29.87 "HgN/A
1:30 AM76 °FMild.1 mph91%29.87 "HgN/A
12:30 AM76 °FMild.No wind91%29.89 "HgN/A
11:30 PM
Oct 29
76 °FMild.3 mph92%29.91 "HgN/A
10:30 PM76 °FMild.5 mph90%29.93 "HgN/A
9:30 PM76 °FMild.3 mph89%29.93 "HgN/A
8:30 PM77 °FMild.7 mph88%29.93 "HgN/A
7:30 PM78 °FWarm.8 mph84%29.92 "HgN/A
6:30 PM81 °FWarm.3 mph74%29.90 "HgN/A
4:30 PM84 °FPartly sunny.6 mph67%29.88 "Hg28 mi
3:30 PM87 °FOvercast.5 mph63%29.87 "Hg28 mi
2:30 PM90 °FOvercast.9 mph58%29.87 "Hg28 mi
1:30 PM90 °FPassing clouds.14 mph60%29.88 "Hg28 mi
12:30 PM93 °FExtremely hot.12 mph55%29.90 "HgN/A
11:30 AM93 °FPassing clouds.12 mph55%29.92 "Hg28 mi
10:30 AM90 °FScattered clouds.17 mph60%29.93 "Hg28 mi
9:30 AM92 °FScattered clouds.10 mph56%29.96 "Hg28 mi
8:30 AM88 °FScattered clouds.10 mph59%29.95 "Hg25 mi
7:30 AM82 °FScattered clouds.3 mph71%29.96 "Hg25 mi
6:30 AM78 °FWarm.2 mph86%29.93 "HgN/A
5:30 AM74 °FScattered clouds.No wind91%29.91 "Hg9 mi
Weather by CustomWeather, © 2014

See weather overviewHow to use our weather pages